Location: Bu�n Treun
(12.1333°N, 108.3167°E)
Time: 21:08:12
(UTC+00:00)

ISS - Visible Passes

Search period start: 04 December 2022 00:00
Search period end: 14 December 2022 00:00
Orbit: 414 x 420 km, 51.6° (Epoch: 04 December)

Date Brightness Start Highest point End Pass type
(mag) Time Alt. Az. Time Alt. Az. Time Alt. Az.
08 Dec -3.6 11:37:07 10° NNW 11:39:57 52° NNE 11:39:57 52° NNE visible
09 Dec -2.7 10:49:24 10° N 10:52:10 25° NE 10:54:58 10° ESE visible
09 Dec -0.3 12:27:47 10° WSW 12:28:42 11° SW 12:29:36 10° SW visible
10 Dec -1.3 11:37:47 10° WNW 11:40:31 24° SW 11:43:16 10° S visible
11 Dec -3.0 10:49:04 10° NW 10:52:20 58° SW 10:55:36 10° SSE visible
13 Dec -0.1 10:50:57 10° W 10:52:17 12° SW 10:53:38 10° SSW visible
13 Dec -1.7 22:30:28 10° SSW 22:33:32 34° SE 22:36:36 10° ENE visible
